User: anonymous   Login
Location: Unspecified
(0.0000°N, 0.0000°E)
Time: 21:29:52
(UTC+00:00)
Language:

TBA - TO BE ASSIGNED - Orbit

View from above orbital plane
View from above orbital plane
View from above satellite
View from above satellite

Ground track
Ground track

The orbit is defined by the following mean orbital elements,

1 69076U          26145.62279333 +.00000000 +00000-0 +32023-4 0 00008
2 69076  88.9868 344.2002 0003535 147.9604 212.1801 14.18732440    08
Epoch (UTC): 25 May 2026 14:56:49
Eccentricity: 0.0003535
inclination: 88.9868°
perigee height: 827 km
apogee height: 832 km
right ascension of ascending node: 344.2002°
argument of perigee: 147.9604°
revolutions per day: 14.18732440
mean anomaly at epoch: 212.1801°

The dashed part of the orbit path shows where the satellite is in the earth's shadow,  

DLR